[[{"header":{"parameterUnit":"m.s-1","parameterCategory":1,"la1":30.2991,"la2":30.254,"lo1":-89.0895,"lo2":-89.0444,"dy":0.0017,"dx":0.0017,"nx":28,"ny":28,"refTime":"2025-07-02T21:00:00:Z","depth":0,"parameterNumber":2,"parameterNumberName":"U-component_of_WINDS"},"data":[0,0,0,0,0,0,0,0,0,0,0,0,0,0,0,0,0,0,0,0,0,0,0,0,0,0,0,0,0,0,0,0,0,0,0,0,0,0,0,0,0,0,0,0,0,0,0,0,0,0,0,0,0,0,0,0,0,0,-0.6285,-0.6285,0,-0.6265,-0.6264,-0.6264,-0.6206,-0.6204,-0.6203,-0.6202,-0.6183,-0.6183,-0.6184,0,0,0,0,0,0,0,0,0,0,0,0,0,-0.6275,-0.6276,-0.6285,-0.6285,-0.6285,-0.6265,-0.6264,-0.6264,-0.6206,-0.6204,-0.6203,-0.6201,-0.6182,-0.6183,-0.6184,0,0,0,0,0,0,0,0,0,0,0,0,0,-0.627,-0.6276,-0.6285,-0.6253,-0.625,-0.6265,-0.6264,-0.6264,-0.6206,-0.6204,-0.6202,-0.62,-0.6182,-0.6183,-0.6184,-0.6229,0,0,-0.6187,-0.6188,0,0,0,0,0,0,0,0,-0.627,-0.627,-0.6258,-0.6256,-0.6252,-0.6236,-0.6254,-0.6252,-0.6207,-0.6223,-0.6202,-0.62,-0.6202,-0.6201,-0.6202,-0.6228,-0.6227,-0.6187,-0.6188,-0.6188,-0.6189,0,0,0,0,0,0,0,-0.6271,-0.6271,-0.6277,-0.6258,-0.6254,-0.624,-0.6237,-0.6253,-0.6224,-0.6221,-0.6217,-0.6215,-0.62,-0.6201,-0.6201,-0.6227,-0.6187,-0.6188,-0.6189,-0.6189,-0.6288,-0.629,0,0,0,0,0,0,-0.6275,-0.6272,-0.6278,-0.6277,-0.6257,-0.6242,-0.6239,-0.6243,-0.6223,-0.6218,-0.6217,-0.6213,-0.62,-0.62,-0.62,-0.6251,-0.6188,-0.6189,-0.619,-0.6286,-0.6288,-0.629,0,0,0,0,0,0,-0.6276,-0.6277,-0.6279,-0.6273,-0.6272,-0.6244,-0.6249,-0.6244,-0.6244,-0.622,-0.6214,-0.6223,-0.6198,-0.6198,-0.6222,-0.6249,-0.619,-0.6191,-0.6284,-0.6287,-0.6289,-0.6354,0,0,0,0,0,0,-0.6275,-0.6277,-0.6294,-0.6274,-0.6273,-0.6301,-0.6251,-0.6245,-0.6246,-0.624,-0.6224,-0.622,-0.6197,-0.6221,-0.6223,-0.625,-0.6191,-0.6281,-0.6285,-0.6288,-0.6349,-0.6358,-0.6366,0,0,0,0,0,-0.6275,-0.6313,-0.6295,-0.6296,-0.6293,-0.6303,-0.6302,-0.6275,-0.6249,-0.6265,-0.6249,-0.622,-0.6246,-0.6223,-0.6225,-0.6253,-0.6279,-0.6284,-0.6288,-0.6345,-0.6357,-0.6366,0,0,0,0,0,0,-0.6338,-0.631,-0.6289,-0.6322,-0.6315,-0.6293,-0.6313,-0.6288,-0.6289,-0.6284,-0.6249,-0.6246,-0.6275,-0.6266,-0.6242,-0.6295,-0.6258,-0.6263,-0.63,-0.6311,-0.6319,-0.6322,-0.6192,0,0,0,0,0,-0.6356,-0.6366,-0.634,-0.6372,-0.6369,-0.6342,-0.6345,-0.6324,-0.6316,-0.6313,-0.6299,-0.6293,-0.6299,-0.6304,-0.6309,-0.6346,-0.6342,-0.6366,-0.6375,-0.6383,-0.6388,-0.6407,-0.6418,-0.6305,-0.6305,-0.6305,0,0,-0.6393,-0.6378,-0.6387,-0.6384,-0.6376,-0.6388,-0.634,-0.6354,-0.6363,-0.6316,-0.6337,-0.6326,-0.6316,-0.6347,-0.636,-0.6341,-0.6418,-0.6388,-0.6394,-0.6396,-0.6413,-0.6424,-0.6433,-0.6308,-0.6308,-0.6307,0,0,-0.6465,-0.6455,-0.648,-0.6473,-0.6461,-0.6442,-0.6448,-0.6429,-0.642,-0.6441,-0.6405,-0.6415,-0.6426,-0.6421,-0.642,-0.6489,-0.6462,-0.6491,-0.6538,-0.6557,-0.6566,-0.6574,-0.6599,-0.6608,-0.6496,-0.6496,-0.6496,0,-0.6513,-0.6528,-0.6496,-0.6512,-0.6512,-0.6468,-0.6493,-0.6488,-0.6479,-0.648,-0.6458,-0.6471,-0.6462,-0.6491,-0.6507,-0.6507,-0.6513,-0.6494,-0.6567,-0.6574,-0.6581,-0.6605,-0.6614,-0.65,-0.6499,-0.6499,-0.6499,0,-0.6587,-0.6599,-0.662,-0.6611,-0.6613,-0.6634,-0.6605,-0.661,-0.6589,-0.6572,-0.6593,-0.658,-0.6581,-0.6586,-0.6565,-0.6612,-0.66,-0.6573,-0.6535,-0.6596,-0.6618,-0.6626,-0.6505,-0.6504,-0.6503,-0.6502,0,0,-0.6702,-0.6673,-0.6682,-0.6677,-0.666,-0.6669,-0.6687,-0.6687,-0.6693,-0.6687,-0.6702,-0.6712,-0.6686,-0.6685,-0.6663,-0.668,-0.6735,-0.665,-0.665,-0.6667,-0.6786,-0.6807,-0.6818,-0.6717,-0.6718,-0.672,-0.6787,0,-0.6772,-0.6801,-0.6772,-0.6807,-0.6817,-0.6775,-0.679,-0.6782,-0.6767,-0.6773,-0.6756,-0.6764,-0.6729,-0.6728,-0.6742,-0.6726,-0.6759,-0.672,-0.6731,-0.6732,-0.6736,-0.683,-0.6853,-0.6917,-0.6795,-0.6797,-0.6798,0,-0.6858,-0.6855,-0.6892,-0.6871,-0.6874,-0.6889,-0.6886,-0.6892,-0.6882,-0.6869,-0.6867,-0.6839,-0.6856,-0.6817,-0.684,-0.6814,-0.6816,-0.6808,-0.681,-0.6812,-0.677,-0.6835,-0.6937,-0.6947,-0.681,-0.6809,-0.6808,0,-0.6939,-0.6944,-0.6966,-0.6964,-0.694,-0.6952,-0.6943,-0.693,-0.6931,-0.6928,-0.6929,-0.6928,-0.6929,-0.6929,-0.6902,-0.6876,-0.6928,-0.6887,-0.6919,-0.6919,-0.6933,-0.6933,-0.7038,-0.6932,-0.6932,-0.6932,-0.6932,0,-0.7021,-0.7045,-0.7002,-0.7017,-0.7042,-0.7007,-0.7034,-0.702,-0.7009,-0.7019,-0.6982,-0.6993,-0.6956,-0.6963,-0.6942,-0.6964,-0.6964,-0.6955,-0.6949,-0.6959,-0.696,-0.6961,-0.6957,-0.6934,-0.6934,-0.6933,-0.6933,0,-0.7117,-0.7089,-0.7111,-0.7086,-0.708,-0.71,-0.7079,-0.7091,-0.7072,-0.7086,-0.7088,-0.7059,-0.7065,-0.7037,-0.7039,-0.7024,-0.7057,-0.7044,-0.7061,-0.7058,-0.7091,-0.7089,-0.7202,-0.7215,-0.71,-0.7101,-0.7102,0,-0.7172,-0.7189,-0.7166,-0.717,-0.7162,-0.7169,-0.717,-0.7136,-0.7139,-0.7126,-0.714,-0.7143,-0.7143,-0.7155,-0.7134,-0.7135,-0.7121,-0.7161,-0.7122,-0.7131,-0.7123,-0.7123,-0.7125,-0.717,-0.7171,-0.7173,-0.7174,0,-0.7272,-0.7257,-0.726,-0.7257,-0.7259,-0.7256,-0.725,-0.7255,-0.7218,-0.7223,-0.7228,-0.7228,-0.7229,-0.7232,-0.7228,-0.7219,-0.7191,-0.7186,-0.7193,-0.7204,-0.7214,-0.721,-0.7085,-0.7184,-0.7183,-0.7182,-0.7181,-0.7181,-0.735,-0.7363,-0.7349,-0.7353,-0.7344,-0.7339,-0.7349,-0.733,-0.7334,-0.7332,-0.7311,-0.732,-0.7307,-0.7299,-0.7292,-0.7299,-0.728,-0.7291,-0.7294,-0.7297,-0.7304,-0.7212,-0.7298,-0.7297,-0.7297,-0.7297,-0.7297,0,-0.745,-0.7438,-0.7441,-0.7434,-0.7436,-0.7407,-0.7399,-0.7403,-0.7412,-0.7402,-0.7402,-0.7408,-0.7411,-0.7389,-0.7389,-0.7398,-0.7385,-0.7399,-0.7399,-0.7398,-0.732,-0.7314,-0.741,-0.741,-0.741,-0.741,-0.741,-0.741,-0.7502,-0.7523,-0.7506,-0.7522,-0.751,-0.7518,-0.7516,-0.7511,-0.7503,-0.751,-0.7512,-0.7497,-0.7483,-0.7481,-0.7482,-0.7475,-0.7477,-0.7496,-0.7486,-0.7414,-0.7403,-0.7393,-0.7387,-0.7497,-0.7497,-0.7563,-0.7563,-0.7564]},{"header":{"parameterUnit":"m.s-1","parameterCategory":1,"la1":30.2991,"la2":30.254,"lo1":-89.0895,"lo2":-89.0444,"dy":0.0017,"dx":0.0017,"nx":28,"ny":28,"refTime":"2025-07-02T21:00:00:Z","depth":0,"parameterNumber":3,"parameterNumberName":"V-component_of_WINDS"},"data":[0,0,0,0,0,0,0,0,0,0,0,0,0,0,0,0,0,0,0,0,0,0,0,0,0,0,0,0,0,0,0,0,0,0,0,0,0,0,0,0,0,0,0,0,0,0,0,0,0,0,0,0,0,0,0,0,0,0,-2.5344,-2.5345,0,-2.5464,-2.5465,-2.5467,-2.5466,-2.5464,-2.5463,-2.5461,-2.5581,-2.5586,-2.559,0,0,0,0,0,0,0,0,0,0,0,0,0,-2.5111,-2.5115,-2.5344,-2.5345,-2.5347,-2.5464,-2.5465,-2.5467,-2.5466,-2.5464,-2.5462,-2.546,-2.558,-2.5585,-2.5591,0,0,0,0,0,0,0,0,0,0,0,0,0,-2.522,-2.5117,-2.5343,-2.536,-2.5363,-2.5463,-2.5465,-2.5467,-2.5466,-2.5464,-2.5462,-2.5459,-2.5578,-2.5585,-2.5592,-2.5682,0,0,-2.5613,-2.5616,0,0,0,0,0,0,0,0,-2.5213,-2.5228,-2.5356,-2.5359,-2.5363,-2.5447,-2.5427,-2.5539,-2.5467,-2.5427,-2.5461,-2.5458,-2.5539,-2.5549,-2.5576,-2.5688,-2.5693,-2.5614,-2.5618,-2.5621,-2.5623,0,0,0,0,0,0,0,-2.5206,-2.5223,-2.5391,-2.5358,-2.5362,-2.5361,-2.5374,-2.5449,-2.5494,-2.543,-2.5431,-2.5445,-2.554,-2.5569,-2.5579,-2.5695,-2.5613,-2.562,-2.5624,-2.5627,-2.5887,-2.589,0,0,0,0,0,0,-2.5195,-2.5217,-2.5387,-2.5395,-2.5281,-2.5367,-2.5382,-2.5423,-2.5494,-2.5502,-2.5447,-2.5445,-2.5559,-2.5571,-2.5583,-2.5694,-2.5621,-2.5627,-2.5631,-2.5884,-2.5888,-2.589,0,0,0,0,0,0,-2.519,-2.521,-2.5382,-2.5306,-2.5328,-2.5374,-2.542,-2.5426,-2.5456,-2.5506,-2.5514,-2.5469,-2.5557,-2.5573,-2.5658,-2.5698,-2.5631,-2.5637,-2.5881,-2.5885,-2.5889,-2.5917,0,0,0,0,0,0,-2.5184,-2.5209,-2.5244,-2.5307,-2.5332,-2.5456,-2.5422,-2.543,-2.5468,-2.5466,-2.5529,-2.5537,-2.5557,-2.5647,-2.5665,-2.5707,-2.5642,-2.5878,-2.5883,-2.5888,-2.5912,-2.5921,-2.5929,0,0,0,0,0,-2.5175,-2.5246,-2.5246,-2.5266,-2.5377,-2.5458,-2.5472,-2.5494,-2.5472,-2.5507,-2.554,-2.5535,-2.5691,-2.5656,-2.5676,-2.572,-2.5875,-2.5881,-2.5887,-2.5909,-2.592,-2.5929,0,0,0,0,0,0,-2.5186,-2.5255,-2.5255,-2.5349,-2.5398,-2.5458,-2.5503,-2.5505,-2.5561,-2.5556,-2.558,-2.5594,-2.5679,-2.5708,-2.5668,-2.5812,-2.578,-2.5791,-2.579,-2.5801,-2.5809,-2.58,-2.5648,0,0,0,0,0,-2.5199,-2.526,-2.5317,-2.5394,-2.5419,-2.5457,-2.5493,-2.5506,-2.5557,-2.5578,-2.5616,-2.5665,-2.5726,-2.5765,-2.5823,-2.5917,-2.593,-2.5957,-2.5965,-2.5972,-2.598,-2.6033,-2.6045,-2.5911,-2.591,-2.591,0,0,-2.5227,-2.5272,-2.5309,-2.5397,-2.5437,-2.5499,-2.5474,-2.5541,-2.5587,-2.5587,-2.567,-2.57,-2.5756,-2.5846,-2.5888,-2.5873,-2.6021,-2.598,-2.5984,-2.599,-2.604,-2.6053,-2.6064,-2.5915,-2.5914,-2.5913,0,0,-2.531,-2.535,-2.5419,-2.546,-2.5521,-2.5546,-2.5562,-2.5623,-2.5643,-2.5727,-2.5729,-2.5783,-2.5886,-2.5927,-2.5961,-2.606,-2.6058,-2.6078,-2.6121,-2.6172,-2.6182,-2.6192,-2.6227,-2.624,-2.6086,-2.6086,-2.6087,0,-2.5337,-2.5431,-2.5454,-2.5522,-2.556,-2.5565,-2.5635,-2.5672,-2.5749,-2.5775,-2.5758,-2.5888,-2.5926,-2.6026,-2.605,-2.6077,-2.6097,-2.6071,-2.6179,-2.6189,-2.6198,-2.6232,-2.6245,-2.6089,-2.6088,-2.6088,-2.6088,0,-2.5461,-2.5527,-2.5575,-2.565,-2.5694,-2.5762,-2.5795,-2.5836,-2.5846,-2.5872,-2.5957,-2.6004,-2.6072,-2.6096,-2.6105,-2.6197,-2.6186,-2.6174,-2.6143,-2.6212,-2.6245,-2.6258,-2.6092,-2.6091,-2.609,-2.609,0,0,-2.5554,-2.5641,-2.5659,-2.5693,-2.5761,-2.5811,-2.5879,-2.5947,-2.5982,-2.6035,-2.6092,-2.618,-2.6169,-2.6208,-2.6221,-2.6266,-2.6342,-2.6248,-2.625,-2.6264,-2.6447,-2.6456,-2.6471,-2.6341,-2.6344,-2.6346,-2.6442,0,-2.5644,-2.5766,-2.5789,-2.5896,-2.5956,-2.5962,-2.6022,-2.6069,-2.6096,-2.6151,-2.618,-2.6242,-2.6223,-2.6247,-2.6291,-2.6323,-2.6379,-2.6317,-2.6394,-2.6397,-2.638,-2.6488,-2.6497,-2.6586,-2.6455,-2.6457,-2.6459,0,-2.5765,-2.5822,-2.5935,-2.5995,-2.6022,-2.6075,-2.6139,-2.6191,-2.6245,-2.6262,-2.6306,-2.6315,-2.6385,-2.6351,-2.6448,-2.6405,-2.6438,-2.6459,-2.6463,-2.6471,-2.6432,-2.6499,-2.6615,-2.6628,-2.6479,-2.6477,-2.6476,0,-2.5821,-2.5926,-2.6007,-2.6037,-2.6109,-2.6146,-2.6178,-2.623,-2.6269,-2.6325,-2.6351,-2.6413,-2.6448,-2.6496,-2.6521,-2.6494,-2.6617,-2.6584,-2.6632,-2.6632,-2.6658,-2.6656,-2.6781,-2.6679,-2.6679,-2.6678,-2.6678,0,-2.592,-2.5988,-2.6034,-2.6084,-2.6161,-2.6187,-2.6262,-2.6293,-2.6339,-2.6395,-2.6403,-2.6455,-2.6485,-2.6541,-2.6562,-2.6639,-2.6655,-2.667,-2.6674,-2.6669,-2.6667,-2.6691,-2.6686,-2.6682,-2.6681,-2.6681,-2.668,0,-2.5995,-2.6029,-2.6118,-2.6179,-2.6197,-2.6251,-2.6303,-2.6352,-2.6379,-2.6449,-2.6467,-2.6509,-2.6576,-2.6606,-2.6688,-2.6701,-2.679,-2.679,-2.6772,-2.6774,-2.682,-2.6816,-2.6965,-2.6986,-2.687,-2.6871,-2.6872,0,-2.6056,-2.6109,-2.6177,-2.6216,-2.6249,-2.631,-2.6351,-2.6378,-2.642,-2.6487,-2.6527,-2.6594,-2.6649,-2.6755,-2.6793,-2.6855,-2.6857,-2.6905,-2.6866,-2.686,-2.6858,-2.6855,-2.686,-2.6912,-2.6913,-2.6914,-2.6915,0,-2.616,-2.6174,-2.6233,-2.6298,-2.6347,-2.6399,-2.645,-2.6481,-2.6516,-2.6563,-2.6631,-2.6674,-2.6759,-2.6825,-2.6891,-2.6922,-2.6925,-2.6927,-2.6941,-2.6937,-2.6924,-2.6932,-2.6792,-2.6923,-2.6922,-2.6922,-2.6921,-2.6921,-2.623,-2.6278,-2.6334,-2.6399,-2.6441,-2.6489,-2.6538,-2.6572,-2.663,-2.6701,-2.6714,-2.6787,-2.684,-2.6928,-2.6963,-2.702,-2.7008,-2.7029,-2.7034,-2.7039,-2.7042,-2.6915,-2.7032,-2.7031,-2.7031,-2.7031,-2.7031,0,-2.6335,-2.6371,-2.6431,-2.6503,-2.6555,-2.6554,-2.6611,-2.6653,-2.6718,-2.6768,-2.6823,-2.6902,-2.6967,-2.701,-2.7075,-2.7113,-2.7115,-2.7129,-2.7126,-2.7134,-2.7048,-2.703,-2.7126,-2.7126,-2.7126,-2.7126,-2.7126,-2.7126,-2.6395,-2.6477,-2.6498,-2.6599,-2.6635,-2.6708,-2.6741,-2.6785,-2.6825,-2.6913,-2.6968,-2.6996,-2.7043,-2.7112,-2.7171,-2.7182,-2.7206,-2.722,-2.723,-2.715,-2.714,-2.713,-2.7113,-2.7225,-2.7225,-2.7311,-2.7312,-2.7312]}]]